Hourly Data Report for November 06, 2019

All times are specified in Local Standard Time (LST). Add 1 hour to adjust for Daylight Saving Time where and when it is observed.

WOODSTOCK NEWBRIDGE
NEW BRUNSWICK
Current Station Operator: ECCC - MSC

46°09'08.000" N
67°32'34.000" W
154.00 m
8105603
71606
EWD

Download Data

Hourly Data (November 2019)
Hourly Data Report for November 6, 2019
TIME Temp Definition
°C
Dew Point Definition
°C
Rel Hum Definition
%
Wind Dir Definition
10's deg

Wind Spd Definition
km/h
Visibility Definition
km
Stn Press Definition
kPa
Hmdx Definition


Wind Chill Definition


Weather Definition


00:00 8.3 8.1 99 20 2   99.73     LegendNANA
01:00 8.2 7.7 97 23 3   99.65     LegendNANA
02:00 7.9 6.9 93 26 10   99.66     LegendNANA
03:00 6.9 4.9 87 28 6   99.65     LegendNANA
04:00 5.8 3.5 85 27 8   99.64     LegendNANA
05:00 4.3 2.4 87 25 9   99.72     LegendNANA
06:00 3.2 1.7 89 23 7   99.79     LegendNANA
07:00 2.8 0.9 87 24 9   99.84     LegendNANA
08:00 2.5 -0.6 80 24 10   99.90     LegendNANA
09:00 3.7 -2.1 66 25 12   99.97     LegendNANA
10:00 4.6 -2.3 61 25 14   100.00     LegendNANA
11:00 6.1 -2.7 53 24 16   100.03     LegendNANA
12:00 6.5 -3.6 48 26 20   100.02     LegendNANA
13:00 5.1 -4.2 51 26 18   100.01     LegendNANA
14:00 4.7 -4.3 52 25 18   100.07     LegendNANA
15:00 5.1 -6.4 43 25 21   100.13     LegendNANA
16:00 3.5 -8.4 41 26 17   100.23     LegendNANA
17:00 2.9 -8.0 45 26 18   100.31     LegendNANA
18:00 1.6 -7.4 51 26 13   100.39     LegendNANA
19:00 0.8 -6.3 59 24 9   100.50     LegendNANA
20:00 -0.5 -6.3 65 21 4   100.57   -2 LegendNANA
21:00 -2.6 -6.5 75 20 2   100.62   -3 LegendNANA
22:00 -1.7 -6.5 69 21 3   100.65   -3 LegendNANA
23:00 -2.3 -5.9 76 17 4   100.64   -4 LegendNANA

Notes on Data Quality.

Legend

  • E = Estimated
  • M = Missing
  • NA = Not Available
Date modified: